Regional Weather Roundup
Issued by NWS Goodland, KS

Home | Current Version | Previous Version | Text Only | Print | Product List | Glossary Off
Versions: 1 2 3 4 5 6 7 8 9 10 11 12 13 14 15 16 17 18 19 20 21 22 23 24 25 26 27 28 29 30 31 32 33 34 35 36 37 38 39 40 41 42 43 44 45 46 47 48 49 50

000
ASUS43 KGLD 221259
RWRGLD

GOODLAND FORECAST AREA HOURLY WEATHER ROUNDUP
NATIONAL WEATHER SERVICE GOODLAND KS
600 AM MST MON DEC 22 2014

...OFFICIAL OBSERVATIONS...

CITY           SKY/WX    TMP DP  RH WIND       PRES   REMARKS
GOODLAND KS    PTCLDY    34  28  79 NW15      29.66R
HILL CITY KS   CLOUDY    41  31  67 NW16      29.60R
IMPERIAL NEB   MOCLDY    36  27  69 NW17G25   29.64R
MCCOOK NEB     CLOUDY    39  32  76 NW14      29.61R
AKRON CO       CLOUDY    31  28  89 NW15      29.72R
BURLINGTON CO  PTCLDY    34  27  75 NW20      29.69R
LIMON CO       CLOUDY    30  24  78 NW12      29.74R
$$

...UNOFFICIAL OBSERVATIONS...

CITY           SKY/WX    TMP DP  RH WIND       PRES   REMARKS
COLBY KS       CLEAR     34  32  93 NW8       29.65R
GOVE KS          N/A     40  32  73 MISG        N/A
NORTON KS      CLOUDY    37  30  75 W16       29.58R
TRIBUNE KS     MOCLDY    39  34  81 W15       29.70R
KIT CARSON CO    N/A     34  27  74 MISG        N/A
YUMA CO          N/A     34  27  76 NW20        N/A
$$



USA.gov is the U.S. government's official web portal to all federal, state and local government web resources and services.